When you browse on this site, cookies collect data to enhance your experience and personalize the content and advertising you see.
Visit our Privacy Policy to learn more. By continuing to use the site, you agree to this use of cookies and data.
  • In United Kingdom
  • List of Countries
  • For 7 days
  • Water Temperature
  • Satellite Maps
  • Weather Map
  • Weather Widgets
  • user-avatar
    Login

    Hourly Weather Chiquimula

    Today, 20 February, Wednesday

    Time Temperature Precipitation Wind Pressure Humidity
    00:00 +23°C° 0 mm 1 mps 707 mmHg 92%
    01:00 +20°C° 0 mm 0 mps 707 mmHg 92%
    02:00 +20°C° 0 mm 0 mps 706 mmHg 93%
    03:00 +20°C° 0 mm 0 mps 706 mmHg 94%
    04:00 +20°C° 0 mm 0 mps 706 mmHg 94%
    05:00 +19°C° 0 mm 0 mps 706 mmHg 94%
    06:00 +19°C° 0 mm 0 mps 706 mmHg 94%
    07:00 +24°C° 0 mm 1 mps 707 mmHg 81%
    08:00 +27°C° 0 mm 1 mps 707 mmHg 68%
    09:00 +29°C° 0 mm 1 mps 708 mmHg 55%
    10:00 +32°C° 0 mm 1 mps 708 mmHg 47%
    11:00 +34°C° 0 mm 1 mps 708 mmHg 40%
    12:00 +37°C° 0 mm 1 mps 708 mmHg 32%
    13:00 +36°C° 0 mm 1 mps 707 mmHg 33%
    14:00 +35°C° 0 mm 1 mps 706 mmHg 35%
    15:00 +35°C° 0 mm 1 mps 705 mmHg 36%
    16:00 +33°C° 0 mm 1 mps 705 mmHg 44%
    17:00 +30°C° 0 mm 1 mps 705 mmHg 52%
    18:00 +28°C° 0 mm 1 mps 705 mmHg 60%
    19:00 +27°C° 0.1 mm 1 mps 706 mmHg 68%
    20:00 +25°C° 0.1 mm 1 mps 706 mmHg 76%
    21:00 +22°C° 0.1 mm 0 mps 707 mmHg 84%
    22:00 +22°C° 0 mm 0 mps 707 mmHg 87%
    23:00 +21°C° 0 mm 0 mps 707 mmHg 90%

    Tomorrow, 21 February, Thursday

    Time Temperature Precipitation Wind Pressure Humidity
    00:00 +21°C° 0 mm 0 mps 707 mmHg 92%
    01:00 +20°C° 0 mm 0 mps 706 mmHg 93%
    02:00 +20°C° 0 mm 0 mps 706 mmHg 93%
    03:00 +20°C° 0 mm 0 mps 706 mmHg 94%
    04:00 +20°C° 0 mm 0 mps 706 mmHg 94%
    05:00 +22°C° 0 mm 1 mps 706 mmHg 93%
    06:00 +22°C° 0 mm 1 mps 706 mmHg 93%
    07:00 +24°C° 0 mm 1 mps 707 mmHg 81%
    08:00 +27°C° 0 mm 1 mps 708 mmHg 68%
    09:00 +29°C° 0 mm 1 mps 709 mmHg 56%
    10:00 +32°C° 0 mm 1 mps 709 mmHg 48%
    11:00 +35°C° 0 mm 1 mps 709 mmHg 41%
    12:00 +36°C° 0 mm 0 mps 709 mmHg 33%
    13:00 +36°C° 0 mm 1 mps 708 mmHg 36%
    14:00 +34°C° 0 mm 1 mps 707 mmHg 39%
    15:00 +33°C° 0 mm 1 mps 706 mmHg 41%
    16:00 +31°C° 0 mm 1 mps 706 mmHg 47%
    17:00 +30°C° 0 mm 1 mps 706 mmHg 53%
    18:00 +26°C° 0 mm 0 mps 706 mmHg 58%
    19:00 +27°C° 0.2 mm 1 mps 706 mmHg 65%
    20:00 +26°C° 0.2 mm 1 mps 707 mmHg 71%
    21:00 +25°C° 0.2 mm 1 mps 707 mmHg 78%
    22:00 +24°C° 0 mm 1 mps 707 mmHg 83%
    23:00 +23°C° 0 mm 1 mps 707 mmHg 88%

    Day after tomorrow, 22 February, Friday

    Time Temperature Precipitation Wind Pressure Humidity
    00:00 +23°C° 0 mm 1 mps 707 mmHg 93%
    01:00 +23°C° 0 mm 1 mps 707 mmHg 93%
    02:00 +22°C° 0 mm 1 mps 707 mmHg 93%
    03:00 +20°C° 0 mm 0 mps 706 mmHg 93%
    04:00 +20°C° 0 mm 0 mps 707 mmHg 93%
    05:00 +20°C° 0 mm 0 mps 707 mmHg 92%
    06:00 +20°C° 0 mm 0 mps 707 mmHg 91%
    07:00 +23°C° 0 mm 0 mps 708 mmHg 79%
    08:00 +25°C° 0 mm 0 mps 709 mmHg 67%
    09:00 +28°C° 0 mm 0 mps 710 mmHg 55%
    10:00 +30°C° 0 mm 0 mps 710 mmHg 48%
    11:00 +35°C° 0 mm 1 mps 710 mmHg 40%
    12:00 +37°C° 0 mm 1 mps 710 mmHg 33%
    13:00 +36°C° 0 mm 1 mps 709 mmHg 35%
    14:00 +36°C° 0 mm 2 mps 708 mmHg 36%
    15:00 +35°C° 0 mm 2 mps 707 mmHg 37%
    16:00 +32°C° 0.1 mm 2 mps 707 mmHg 44%
    17:00 +30°C° 0.1 mm 2 mps 707 mmHg 51%
    18:00 +29°C° 0.1 mm 2 mps 707 mmHg 59%
    19:00 +27°C° 0.1 mm 1 mps 707 mmHg 67%
    20:00 +26°C° 0.1 mm 1 mps 708 mmHg 75%
    21:00 +24°C° 0.1 mm 1 mps 708 mmHg 84%
    22:00 +24°C° 0 mm 1 mps 708 mmHg 86%
    23:00 +24°C° 0 mm 1 mps 708 mmHg 89%

    23 February, Saturday

    Time Temperature Precipitation Wind Pressure Humidity
    00:00 +23°C° 0 mm 1 mps 708 mmHg 92%
    01:00 +23°C° 0.1 mm 1 mps 708 mmHg 92%
    02:00 +21°C° 0.1 mm 0 mps 707 mmHg 93%
    03:00 +21°C° 0.1 mm 0 mps 707 mmHg 93%
    04:00 +21°C° 0 mm 0 mps 707 mmHg 94%
    05:00 +20°C° 0 mm 0 mps 708 mmHg 94%
    06:00 +20°C° 0 mm 0 mps 708 mmHg 95%
    07:00 +23°C° 0 mm 0 mps 709 mmHg 83%
    08:00 +25°C° 0 mm 0 mps 710 mmHg 71%
    09:00 +28°C° 0 mm 0 mps 710 mmHg 59%
    10:00 +30°C° 0.2 mm 0 mps 710 mmHg 54%
    11:00 +34°C° 0.2 mm 1 mps 710 mmHg 49%
    12:00 +35°C° 0.2 mm 1 mps 709 mmHg 43%
    13:00 +34°C° 0.9 mm 1 mps 708 mmHg 46%
    14:00 +34°C° 0.9 mm 2 mps 708 mmHg 49%
    15:00 +32°C° 0.9 mm 2 mps 707 mmHg 51%
    16:00 +31°C° 0.9 mm 2 mps 707 mmHg 58%
    17:00 +29°C° 0.9 mm 1 mps 707 mmHg 64%
    18:00 +27°C° 0.9 mm 1 mps 707 mmHg 71%
    19:00 +26°C° 0.3 mm 1 mps 708 mmHg 76%
    20:00 +25°C° 0.3 mm 1 mps 708 mmHg 81%
    21:00 +24°C° 0.3 mm 1 mps 709 mmHg 86%
    22:00 +24°C° 0.1 mm 1 mps 709 mmHg 89%
    23:00 +23°C° 0.1 mm 1 mps 709 mmHg 91%

    24 February, Sunday

    Time Temperature Precipitation Wind Pressure Humidity
    00:00 +23°C° 0.1 mm 1 mps 708 mmHg 94%
    01:00 +23°C° 0.1 mm 1 mps 708 mmHg 94%
    02:00 +23°C° 0.1 mm 1 mps 708 mmHg 94%
    03:00 +23°C° 0.1 mm 1 mps 707 mmHg 94%
    04:00 +23°C° 0 mm 1 mps 708 mmHg 93%
    05:00 +22°C° 0 mm 1 mps 708 mmHg 93%
    06:00 +22°C° 0 mm 1 mps 708 mmHg 92%
    07:00 +24°C° 0 mm 1 mps 709 mmHg 84%
    08:00 +25°C° 0 mm 1 mps 709 mmHg 77%
    09:00 +27°C° 0 mm 1 mps 710 mmHg 70%
    10:00 +29°C° 0 mm 2 mps 709 mmHg 63%
    11:00 +30°C° 0 mm 2 mps 709 mmHg 56%
    12:00 +32°C° 0 mm 2 mps 709 mmHg 49%
    13:00 +33°C° 0 mm 3 mps 708 mmHg 48%
    14:00 +34°C° 0 mm 3 mps 707 mmHg 47%
    15:00 +34°C° 0 mm 3 mps 707 mmHg 46%
    16:00 +31°C° 0 mm 3 mps 707 mmHg 53%
    17:00 +29°C° 0 mm 3 mps 707 mmHg 61%
    18:00 +27°C° 0 mm 2 mps 707 mmHg 69%
    19:00 +26°C° 0 mm 2 mps 707 mmHg 76%
    20:00 +25°C° 0 mm 2 mps 708 mmHg 84%
    21:00 +23°C° 0 mm 1 mps 708 mmHg 92%
    22:00 +23°C° 0.1 mm 2 mps 708 mmHg 92%
    23:00 +23°C° 0.1 mm 2 mps 708 mmHg 92%

    25 February, Monday

    Time Temperature Precipitation Wind Pressure Humidity
    00:00 +23°C° 0.1 mm 2 mps 708 mmHg 92%
    01:00 +22°C° 0 mm 1 mps 708 mmHg 92%
    02:00 +22°C° 0 mm 1 mps 707 mmHg 93%
    03:00 +21°C° 0 mm 1 mps 707 mmHg 93%
    04:00 +21°C° 0 mm 1 mps 707 mmHg 93%
    05:00 +21°C° 0 mm 1 mps 708 mmHg 92%
    06:00 +21°C° 0 mm 1 mps 708 mmHg 92%
    07:00 +23°C° 0 mm 1 mps 709 mmHg 82%
    08:00 +25°C° 0 mm 1 mps 709 mmHg 73%
    09:00 +27°C° 0 mm 2 mps 710 mmHg 63%
    10:00 +28°C° 0 mm 2 mps 710 mmHg 56%
    11:00 +30°C° 0 mm 3 mps 709 mmHg 50%
    12:00 +33°C° 0 mm 3 mps 709 mmHg 43%
    13:00 +33°C° 0 mm 3 mps 708 mmHg 45%
    14:00 +31°C° 0 mm 3 mps 708 mmHg 46%
    15:00 +31°C° 0 mm 3 mps 707 mmHg 48%
    16:00 +29°C° 0.1 mm 3 mps 707 mmHg 56%
    17:00 +27°C° 0.1 mm 3 mps 707 mmHg 64%
    18:00 +26°C° 0.1 mm 2 mps 707 mmHg 73%
    19:00 +25°C° 0 mm 2 mps 708 mmHg 78%
    20:00 +24°C° 0 mm 2 mps 708 mmHg 83%
    21:00 +23°C° 0 mm 1 mps 709 mmHg 89%
    22:00 +23°C° 0 mm 1 mps 709 mmHg 89%
    23:00 +23°C° 0 mm 1 mps 709 mmHg 90%
    Show more